iso_date,Year,Hour,Min,DOY,POS_DOY,Lat,Lon,BP,Ts,Ta,has_bp,has_ts,has_ta,BuoyID,Buoy_Type,Buoy_Owner,Logistics,Hemisphere
2022-08-12T12:36:00Z,2022,12,36,224.525,224.525,85.6556,-40.5592,-999.0,3.1,-999.0,no,yes,no,300234066893240,GPS_Tracker,AWI,Polarstern,North
2022-08-12T13:00:02Z,2022,13,0,224.5417,224.5417,85.6564,-40.5564,-999.0,3.5,-999.0,no,yes,no,300234066893240,GPS_Tracker,AWI,Polarstern,North
2022-08-12T13:59:57Z,2022,14,0,224.5833,224.5833,85.6588,-40.5504,-999.0,4.1,-999.0,no,yes,no,300234066893240,GPS_Tracker,AWI,Polarstern,North
2022-08-12T15:00:00Z,2022,15,0,224.625,224.625,85.6612,-40.5436,-999.0,4.5,-999.0,no,yes,no,300234066893240,GPS_Tracker,AWI,Polarstern,North
2022-08-12T16:00:02Z,2022,16,0,224.6667,224.6667,85.6636,-40.5346,-999.0,5.3,-999.0,no,yes,no,300234066893240,GPS_Tracker,AWI,Polarstern,North
2022-08-12T16:59:57Z,2022,17,0,224.7083,224.7083,85.6656,-40.5266,-999.0,5.9,-999.0,no,yes,no,300234066893240,GPS_Tracker,AWI,Polarstern,North
2022-08-12T18:00:00Z,2022,18,0,224.75,224.75,85.6674,-40.5172,-999.0,5.0,-999.0,no,yes,no,300234066893240,GPS_Tracker,AWI,Polarstern,North
2022-08-12T19:00:02Z,2022,19,0,224.7917,224.7917,85.6692,-40.5066,-999.0,4.3,-999.0,no,yes,no,300234066893240,GPS_Tracker,AWI,Polarstern,North
2022-08-12T19:59:57Z,2022,20,0,224.8333,224.8333,85.6706,-40.4958,-999.0,3.8,-999.0,no,yes,no,300234066893240,GPS_Tracker,AWI,Polarstern,North
2022-08-12T21:00:00Z,2022,21,0,224.875,224.875,85.6718,-40.486,-999.0,3.1,-999.0,no,yes,no,300234066893240,GPS_Tracker,AWI,Polarstern,North
2022-08-12T22:00:02Z,2022,22,0,224.9167,224.9167,85.673,-40.4784,-999.0,2.4,-999.0,no,yes,no,300234066893240,GPS_Tracker,AWI,Polarstern,North
2022-08-12T22:59:57Z,2022,23,0,224.9583,224.9583,85.6742,-40.4742,-999.0,1.9,-999.0,no,yes,no,300234066893240,GPS_Tracker,AWI,Polarstern,North
2022-08-13T00:00:00Z,2022,0,0,225.0,225.0,85.6752,-40.4736,-999.0,1.2,-999.0,no,yes,no,300234066893240,GPS_Tracker,AWI,Polarstern,North
2022-08-13T01:00:02Z,2022,1,0,225.0417,225.0417,85.676,-40.4764,-999.0,0.6,-999.0,no,yes,no,300234066893240,GPS_Tracker,AWI,Polarstern,North
2022-08-13T01:59:57Z,2022,2,0,225.0833,225.0833,85.677,-40.482,-999.0,0.2,-999.0,no,yes,no,300234066893240,GPS_Tracker,AWI,Polarstern,North
2022-08-13T03:00:00Z,2022,3,0,225.125,225.125,85.6778,-40.4908,-999.0,0.2,-999.0,no,yes,no,300234066893240,GPS_Tracker,AWI,Polarstern,North
2022-08-13T04:00:02Z,2022,4,0,225.1667,225.1667,85.679,-40.502,-999.0,0.4,-999.0,no,yes,no,300234066893240,GPS_Tracker,AWI,Polarstern,North
2022-08-13T04:59:57Z,2022,5,0,225.2083,225.2083,85.6804,-40.514,-999.0,0.6,-999.0,no,yes,no,300234066893240,GPS_Tracker,AWI,Polarstern,North
2022-08-13T06:00:00Z,2022,6,0,225.25,225.25,85.6818,-40.5252,-999.0,1.0,-999.0,no,yes,no,300234066893240,GPS_Tracker,AWI,Polarstern,North
2022-08-13T07:00:02Z,2022,7,0,225.2917,225.2917,85.6836,-40.5352,-999.0,1.3,-999.0,no,yes,no,300234066893240,GPS_Tracker,AWI,Polarstern,North
2022-08-13T07:59:57Z,2022,8,0,225.3333,225.3333,85.6856,-40.5432,-999.0,1.7,-999.0,no,yes,no,300234066893240,GPS_Tracker,AWI,Polarstern,North
2022-08-13T09:00:00Z,2022,9,0,225.375,225.375,85.6876,-40.5464,-999.0,1.8,-999.0,no,yes,no,300234066893240,GPS_Tracker,AWI,Polarstern,North
2022-08-13T10:00:02Z,2022,10,0,225.4167,225.4167,85.6896,-40.5472,-999.0,1.9,-999.0,no,yes,no,300234066893240,GPS_Tracker,AWI,Polarstern,North
2022-08-13T10:59:57Z,2022,11,0,225.4583,225.4583,85.6914,-40.5486,-999.0,1.9,-999.0,no,yes,no,300234066893240,GPS_Tracker,AWI,Polarstern,North
2022-08-13T12:00:00Z,2022,12,0,225.5,225.5,85.6934,-40.5514,-999.0,2.1,-999.0,no,yes,no,300234066893240,GPS_Tracker,AWI,Polarstern,North
2022-08-13T13:00:02Z,2022,13,0,225.5417,225.5417,85.6954,-40.5576,-999.0,2.5,-999.0,no,yes,no,300234066893240,GPS_Tracker,AWI,Polarstern,North
2022-08-13T13:59:57Z,2022,14,0,225.5833,225.5833,85.6972,-40.5684,-999.0,3.2,-999.0,no,yes,no,300234066893240,GPS_Tracker,AWI,Polarstern,North
2022-08-13T15:00:00Z,2022,15,0,225.625,225.625,85.6994,-40.584,-999.0,3.6,-999.0,no,yes,no,300234066893240,GPS_Tracker,AWI,Polarstern,North
2022-08-13T16:00:02Z,2022,16,0,225.6667,225.6667,85.7022,-40.603,-999.0,4.0,-999.0,no,yes,no,300234066893240,GPS_Tracker,AWI,Polarstern,North
2022-08-13T16:59:57Z,2022,17,0,225.7083,225.7083,85.7048,-40.6218,-999.0,3.4,-999.0,no,yes,no,300234066893240,GPS_Tracker,AWI,Polarstern,North
2022-08-13T18:00:00Z,2022,18,0,225.75,225.75,85.7076,-40.6392,-999.0,3.3,-999.0,no,yes,no,300234066893240,GPS_Tracker,AWI,Polarstern,North
2022-08-13T19:00:02Z,2022,19,0,225.7917,225.7917,85.7106,-40.654,-999.0,2.7,-999.0,no,yes,no,300234066893240,GPS_Tracker,AWI,Polarstern,North
2022-08-13T19:59:57Z,2022,20,0,225.8333,225.8333,85.7134,-40.6658,-999.0,2.5,-999.0,no,yes,no,300234066893240,GPS_Tracker,AWI,Polarstern,North
2022-08-13T21:00:00Z,2022,21,0,225.875,225.875,85.716,-40.6746,-999.0,2.1,-999.0,no,yes,no,300234066893240,GPS_Tracker,AWI,Polarstern,North
2022-08-13T22:00:02Z,2022,22,0,225.9167,225.9167,85.7188,-40.6824,-999.0,1.7,-999.0,no,yes,no,300234066893240,GPS_Tracker,AWI,Polarstern,North
2022-08-13T22:59:57Z,2022,23,0,225.9583,225.9583,85.7214,-40.6912,-999.0,1.1,-999.0,no,yes,no,300234066893240,GPS_Tracker,AWI,Polarstern,North
2022-08-14T00:00:00Z,2022,0,0,226.0,226.0,85.724,-40.7022,-999.0,0.7,-999.0,no,yes,no,300234066893240,GPS_Tracker,AWI,Polarstern,North
2022-08-14T01:00:02Z,2022,1,0,226.0417,226.0417,85.7264,-40.7176,-999.0,0.5,-999.0,no,yes,no,300234066893240,GPS_Tracker,AWI,Polarstern,North
2022-08-14T01:59:57Z,2022,2,0,226.0833,226.0833,85.7288,-40.7368,-999.0,0.3,-999.0,no,yes,no,300234066893240,GPS_Tracker,AWI,Polarstern,North
2022-08-14T03:00:00Z,2022,3,0,226.125,226.125,85.7314,-40.7546,-999.0,0.2,-999.0,no,yes,no,300234066893240,GPS_Tracker,AWI,Polarstern,North
2022-08-14T04:00:02Z,2022,4,0,226.1667,226.1667,85.7342,-40.7718,-999.0,0.2,-999.0,no,yes,no,300234066893240,GPS_Tracker,AWI,Polarstern,North
2022-08-14T04:59:57Z,2022,5,0,226.2083,226.2083,85.737,-40.7878,-999.0,0.3,-999.0,no,yes,no,300234066893240,GPS_Tracker,AWI,Polarstern,North
2022-08-14T06:00:00Z,2022,6,0,226.25,226.25,85.7402,-40.8016,-999.0,0.1,-999.0,no,yes,no,300234066893240,GPS_Tracker,AWI,Polarstern,North
2022-08-14T07:00:02Z,2022,7,0,226.2917,226.2917,85.7432,-40.8102,-999.0,0.0,-999.0,no,yes,no,300234066893240,GPS_Tracker,AWI,Polarstern,North
2022-08-14T07:59:57Z,2022,8,0,226.3333,226.3333,85.7462,-40.8148,-999.0,0.3,-999.0,no,yes,no,300234066893240,GPS_Tracker,AWI,Polarstern,North
2022-08-14T09:00:00Z,2022,9,0,226.375,226.375,85.7496,-40.8174,-999.0,0.7,-999.0,no,yes,no,300234066893240,GPS_Tracker,AWI,Polarstern,North
2022-08-14T10:00:02Z,2022,10,0,226.4167,226.4167,85.7534,-40.8156,-999.0,0.8,-999.0,no,yes,no,300234066893240,GPS_Tracker,AWI,Polarstern,North
2022-08-14T10:59:57Z,2022,11,0,226.4583,226.4583,85.7566,-40.812,-999.0,1.2,-999.0,no,yes,no,300234066893240,GPS_Tracker,AWI,Polarstern,North
2022-08-14T12:00:00Z,2022,12,0,226.5,226.5,85.7598,-40.8078,-999.0,1.5,-999.0,no,yes,no,300234066893240,GPS_Tracker,AWI,Polarstern,North
2022-08-14T13:00:02Z,2022,13,0,226.5417,226.5417,85.7624,-40.8038,-999.0,1.9,-999.0,no,yes,no,300234066893240,GPS_Tracker,AWI,Polarstern,North
2022-08-14T13:59:57Z,2022,14,0,226.5833,226.5833,85.765,-40.8004,-999.0,2.6,-999.0,no,yes,no,300234066893240,GPS_Tracker,AWI,Polarstern,North
2022-08-14T15:00:00Z,2022,15,0,226.625,226.625,85.7674,-40.7968,-999.0,3.3,-999.0,no,yes,no,300234066893240,GPS_Tracker,AWI,Polarstern,North
2022-08-14T16:00:02Z,2022,16,0,226.6667,226.6667,85.7698,-40.7914,-999.0,2.7,-999.0,no,yes,no,300234066893240,GPS_Tracker,AWI,Polarstern,North
2022-08-14T16:59:57Z,2022,17,0,226.7083,226.7083,85.772,-40.7832,-999.0,3.1,-999.0,no,yes,no,300234066893240,GPS_Tracker,AWI,Polarstern,North
2022-08-14T18:00:00Z,2022,18,0,226.75,226.75,85.7742,-40.7724,-999.0,3.7,-999.0,no,yes,no,300234066893240,GPS_Tracker,AWI,Polarstern,North
2022-08-14T19:00:02Z,2022,19,0,226.7917,226.7917,85.7762,-40.7586,-999.0,3.9,-999.0,no,yes,no,300234066893240,GPS_Tracker,AWI,Polarstern,North
2022-08-14T19:59:57Z,2022,20,0,226.8333,226.8333,85.778,-40.7434,-999.0,3.7,-999.0,no,yes,no,300234066893240,GPS_Tracker,AWI,Polarstern,North
2022-08-14T21:00:00Z,2022,21,0,226.875,226.875,85.78,-40.7278,-999.0,3.5,-999.0,no,yes,no,300234066893240,GPS_Tracker,AWI,Polarstern,North
2022-08-14T22:00:02Z,2022,22,0,226.9167,226.9167,85.7816,-40.7114,-999.0,3.0,-999.0,no,yes,no,300234066893240,GPS_Tracker,AWI,Polarstern,North
2022-08-14T22:59:57Z,2022,23,0,226.9583,226.9583,85.783,-40.696,-999.0,2.5,-999.0,no,yes,no,300234066893240,GPS_Tracker,AWI,Polarstern,North
2022-08-15T00:00:00Z,2022,0,0,227.0,227.0,85.7842,-40.6828,-999.0,2.2,-999.0,no,yes,no,300234066893240,GPS_Tracker,AWI,Polarstern,North
2022-08-15T01:00:02Z,2022,1,0,227.0417,227.0417,85.7852,-40.6716,-999.0,1.9,-999.0,no,yes,no,300234066893240,GPS_Tracker,AWI,Polarstern,North
2022-08-15T01:59:57Z,2022,2,0,227.0833,227.0833,85.7858,-40.6616,-999.0,1.6,-999.0,no,yes,no,300234066893240,GPS_Tracker,AWI,Polarstern,North
2022-08-15T03:00:00Z,2022,3,0,227.125,227.125,85.7866,-40.6546,-999.0,1.2,-999.0,no,yes,no,300234066893240,GPS_Tracker,AWI,Polarstern,North
2022-08-15T04:00:02Z,2022,4,0,227.1667,227.1667,85.7874,-40.6502,-999.0,1.0,-999.0,no,yes,no,300234066893240,GPS_Tracker,AWI,Polarstern,North
2022-08-15T04:59:57Z,2022,5,0,227.2083,227.2083,85.7884,-40.6462,-999.0,0.9,-999.0,no,yes,no,300234066893240,GPS_Tracker,AWI,Polarstern,North
2022-08-15T06:00:00Z,2022,6,0,227.25,227.25,85.7898,-40.6418,-999.0,0.8,-999.0,no,yes,no,300234066893240,GPS_Tracker,AWI,Polarstern,North
2022-08-15T07:00:02Z,2022,7,0,227.2917,227.2917,85.7912,-40.6372,-999.0,0.8,-999.0,no,yes,no,300234066893240,GPS_Tracker,AWI,Polarstern,North
2022-08-15T07:59:57Z,2022,8,0,227.3333,227.3333,85.7926,-40.6318,-999.0,0.9,-999.0,no,yes,no,300234066893240,GPS_Tracker,AWI,Polarstern,North
2022-08-15T09:00:00Z,2022,9,0,227.375,227.375,85.7942,-40.6242,-999.0,1.0,-999.0,no,yes,no,300234066893240,GPS_Tracker,AWI,Polarstern,North
2022-08-15T10:00:02Z,2022,10,0,227.4167,227.4167,85.7956,-40.612,-999.0,1.1,-999.0,no,yes,no,300234066893240,GPS_Tracker,AWI,Polarstern,North
2022-08-15T10:59:57Z,2022,11,0,227.4583,227.4583,85.7968,-40.5986,-999.0,1.3,-999.0,no,yes,no,300234066893240,GPS_Tracker,AWI,Polarstern,North
2022-08-15T12:00:00Z,2022,12,0,227.5,227.5,85.798,-40.5852,-999.0,1.5,-999.0,no,yes,no,300234066893240,GPS_Tracker,AWI,Polarstern,North
2022-08-15T13:00:02Z,2022,13,0,227.5417,227.5417,85.7992,-40.5732,-999.0,1.8,-999.0,no,yes,no,300234066893240,GPS_Tracker,AWI,Polarstern,North
2022-08-15T13:59:57Z,2022,14,0,227.5833,227.5833,85.8006,-40.5642,-999.0,2.4,-999.0,no,yes,no,300234066893240,GPS_Tracker,AWI,Polarstern,North
2022-08-15T15:00:00Z,2022,15,0,227.625,227.625,85.802,-40.5576,-999.0,2.8,-999.0,no,yes,no,300234066893240,GPS_Tracker,AWI,Polarstern,North
2022-08-15T16:00:02Z,2022,16,0,227.6667,227.6667,85.8036,-40.5528,-999.0,3.4,-999.0,no,yes,no,300234066893240,GPS_Tracker,AWI,Polarstern,North
2022-08-15T16:59:57Z,2022,17,0,227.7083,227.7083,85.8052,-40.5472,-999.0,2.8,-999.0,no,yes,no,300234066893240,GPS_Tracker,AWI,Polarstern,North
2022-08-15T18:00:00Z,2022,18,0,227.75,227.75,85.807,-40.5406,-999.0,3.2,-999.0,no,yes,no,300234066893240,GPS_Tracker,AWI,Polarstern,North
2022-08-15T19:00:02Z,2022,19,0,227.7917,227.7917,85.8086,-40.5322,-999.0,3.2,-999.0,no,yes,no,300234066893240,GPS_Tracker,AWI,Polarstern,North
2022-08-15T19:59:57Z,2022,20,0,227.8333,227.8333,85.8102,-40.524,-999.0,3.0,-999.0,no,yes,no,300234066893240,GPS_Tracker,AWI,Polarstern,North
2022-08-15T21:00:00Z,2022,21,0,227.875,227.875,85.8114,-40.5152,-999.0,2.6,-999.0,no,yes,no,300234066893240,GPS_Tracker,AWI,Polarstern,North
2022-08-15T22:00:02Z,2022,22,0,227.9167,227.9167,85.8126,-40.5054,-999.0,2.1,-999.0,no,yes,no,300234066893240,GPS_Tracker,AWI,Polarstern,North
2022-08-15T22:59:57Z,2022,23,0,227.9583,227.9583,85.8138,-40.4924,-999.0,1.7,-999.0,no,yes,no,300234066893240,GPS_Tracker,AWI,Polarstern,North
2022-08-16T00:00:00Z,2022,0,0,228.0,228.0,85.8148,-40.479,-999.0,1.3,-999.0,no,yes,no,300234066893240,GPS_Tracker,AWI,Polarstern,North
2022-08-16T01:00:02Z,2022,1,0,228.0417,228.0417,85.8158,-40.4648,-999.0,0.9,-999.0,no,yes,no,300234066893240,GPS_Tracker,AWI,Polarstern,North
2022-08-16T01:59:57Z,2022,2,0,228.0833,228.0833,85.8166,-40.4512,-999.0,0.7,-999.0,no,yes,no,300234066893240,GPS_Tracker,AWI,Polarstern,North
2022-08-16T03:00:00Z,2022,3,0,228.125,228.125,85.8174,-40.438,-999.0,0.5,-999.0,no,yes,no,300234066893240,GPS_Tracker,AWI,Polarstern,North
2022-08-16T04:00:02Z,2022,4,0,228.1667,228.1667,85.8184,-40.4242,-999.0,0.4,-999.0,no,yes,no,300234066893240,GPS_Tracker,AWI,Polarstern,North
2022-08-16T04:59:57Z,2022,5,0,228.2083,228.2083,85.8192,-40.4118,-999.0,0.4,-999.0,no,yes,no,300234066893240,GPS_Tracker,AWI,Polarstern,North
2022-08-16T06:00:00Z,2022,6,0,228.25,228.25,85.82,-40.4012,-999.0,0.5,-999.0,no,yes,no,300234066893240,GPS_Tracker,AWI,Polarstern,North
2022-08-16T07:00:02Z,2022,7,0,228.2917,228.2917,85.8212,-40.3908,-999.0,0.5,-999.0,no,yes,no,300234066893240,GPS_Tracker,AWI,Polarstern,North
2022-08-16T07:59:57Z,2022,8,0,228.3333,228.3333,85.8224,-40.3802,-999.0,0.7,-999.0,no,yes,no,300234066893240,GPS_Tracker,AWI,Polarstern,North
2022-08-16T09:00:00Z,2022,9,0,228.375,228.375,85.824,-40.3706,-999.0,0.8,-999.0,no,yes,no,300234066893240,GPS_Tracker,AWI,Polarstern,North
2022-08-16T10:00:02Z,2022,10,0,228.4167,228.4167,85.8258,-40.36,-999.0,1.0,-999.0,no,yes,no,300234066893240,GPS_Tracker,AWI,Polarstern,North
2022-08-16T10:59:57Z,2022,11,0,228.4583,228.4583,85.8282,-40.349,-999.0,1.2,-999.0,no,yes,no,300234066893240,GPS_Tracker,AWI,Polarstern,North
2022-08-16T12:00:00Z,2022,12,0,228.5,228.5,85.8306,-40.335,-999.0,1.3,-999.0,no,yes,no,300234066893240,GPS_Tracker,AWI,Polarstern,North
2022-08-16T13:00:02Z,2022,13,0,228.5417,228.5417,85.8328,-40.32,-999.0,1.5,-999.0,no,yes,no,300234066893240,GPS_Tracker,AWI,Polarstern,North
2022-08-16T13:59:57Z,2022,14,0,228.5833,228.5833,85.8354,-40.3054,-999.0,1.8,-999.0,no,yes,no,300234066893240,GPS_Tracker,AWI,Polarstern,North
2022-08-16T15:00:00Z,2022,15,0,228.625,228.625,85.8382,-40.2904,-999.0,1.8,-999.0,no,yes,no,300234066893240,GPS_Tracker,AWI,Polarstern,North
2022-08-16T16:00:02Z,2022,16,0,228.6667,228.6667,85.8414,-40.2742,-999.0,1.6,-999.0,no,yes,no,300234066893240,GPS_Tracker,AWI,Polarstern,North
2022-08-16T16:59:57Z,2022,17,0,228.7083,228.7083,85.8442,-40.2568,-999.0,1.5,-999.0,no,yes,no,300234066893240,GPS_Tracker,AWI,Polarstern,North
2022-08-16T18:00:00Z,2022,18,0,228.75,228.75,85.8468,-40.237,-999.0,1.4,-999.0,no,yes,no,300234066893240,GPS_Tracker,AWI,Polarstern,North
2022-08-16T19:00:02Z,2022,19,0,228.7917,228.7917,85.8492,-40.2148,-999.0,1.3,-999.0,no,yes,no,300234066893240,GPS_Tracker,AWI,Polarstern,North
2022-08-16T19:59:57Z,2022,20,0,228.8333,228.8333,85.8512,-40.1946,-999.0,1.2,-999.0,no,yes,no,300234066893240,GPS_Tracker,AWI,Polarstern,North
2022-08-16T21:00:00Z,2022,21,0,228.875,228.875,85.853,-40.1788,-999.0,1.1,-999.0,no,yes,no,300234066893240,GPS_Tracker,AWI,Polarstern,North
2022-08-16T22:00:02Z,2022,22,0,228.9167,228.9167,85.8548,-40.1672,-999.0,1.0,-999.0,no,yes,no,300234066893240,GPS_Tracker,AWI,Polarstern,North
2022-08-16T22:59:57Z,2022,23,0,228.9583,228.9583,85.8566,-40.1586,-999.0,0.9,-999.0,no,yes,no,300234066893240,GPS_Tracker,AWI,Polarstern,North
2022-08-17T00:00:00Z,2022,0,0,229.0,229.0,85.8584,-40.1504,-999.0,0.7,-999.0,no,yes,no,300234066893240,GPS_Tracker,AWI,Polarstern,North
2022-08-17T01:00:02Z,2022,1,0,229.0417,229.0417,85.86,-40.1426,-999.0,0.6,-999.0,no,yes,no,300234066893240,GPS_Tracker,AWI,Polarstern,North
2022-08-17T01:59:57Z,2022,2,0,229.0833,229.0833,85.8616,-40.1344,-999.0,0.6,-999.0,no,yes,no,300234066893240,GPS_Tracker,AWI,Polarstern,North
2022-08-17T03:00:00Z,2022,3,0,229.125,229.125,85.8632,-40.1276,-999.0,0.5,-999.0,no,yes,no,300234066893240,GPS_Tracker,AWI,Polarstern,North
2022-08-17T04:00:02Z,2022,4,0,229.1667,229.1667,85.8644,-40.1236,-999.0,0.5,-999.0,no,yes,no,300234066893240,GPS_Tracker,AWI,Polarstern,North
2022-08-17T04:59:57Z,2022,5,0,229.2083,229.2083,85.8654,-40.1214,-999.0,0.5,-999.0,no,yes,no,300234066893240,GPS_Tracker,AWI,Polarstern,North
2022-08-17T06:00:00Z,2022,6,0,229.25,229.25,85.8664,-40.1228,-999.0,0.6,-999.0,no,yes,no,300234066893240,GPS_Tracker,AWI,Polarstern,North
2022-08-17T07:00:02Z,2022,7,0,229.2917,229.2917,85.8672,-40.1268,-999.0,0.6,-999.0,no,yes,no,300234066893240,GPS_Tracker,AWI,Polarstern,North
2022-08-17T07:59:57Z,2022,8,0,229.3333,229.3333,85.8682,-40.133,-999.0,0.7,-999.0,no,yes,no,300234066893240,GPS_Tracker,AWI,Polarstern,North
2022-08-17T09:00:00Z,2022,9,0,229.375,229.375,85.869,-40.1408,-999.0,0.8,-999.0,no,yes,no,300234066893240,GPS_Tracker,AWI,Polarstern,North
2022-08-17T10:00:02Z,2022,10,0,229.4167,229.4167,85.8696,-40.1502,-999.0,0.9,-999.0,no,yes,no,300234066893240,GPS_Tracker,AWI,Polarstern,North
2022-08-17T10:59:57Z,2022,11,0,229.4583,229.4583,85.8704,-40.1588,-999.0,0.9,-999.0,no,yes,no,300234066893240,GPS_Tracker,AWI,Polarstern,North
2022-08-17T12:00:00Z,2022,12,0,229.5,229.5,85.871,-40.1664,-999.0,0.9,-999.0,no,yes,no,300234066893240,GPS_Tracker,AWI,Polarstern,North
2022-08-17T13:00:02Z,2022,13,0,229.5417,229.5417,85.8714,-40.1726,-999.0,1.0,-999.0,no,yes,no,300234066893240,GPS_Tracker,AWI,Polarstern,North
2022-08-17T13:59:57Z,2022,14,0,229.5833,229.5833,85.8718,-40.178,-999.0,1.1,-999.0,no,yes,no,300234066893240,GPS_Tracker,AWI,Polarstern,North
2022-08-17T15:00:00Z,2022,15,0,229.625,229.625,85.8724,-40.1838,-999.0,1.2,-999.0,no,yes,no,300234066893240,GPS_Tracker,AWI,Polarstern,North
2022-08-17T16:00:02Z,2022,16,0,229.6667,229.6667,85.8726,-40.19,-999.0,1.3,-999.0,no,yes,no,300234066893240,GPS_Tracker,AWI,Polarstern,North
2022-08-17T16:59:57Z,2022,17,0,229.7083,229.7083,85.873,-40.2,-999.0,1.4,-999.0,no,yes,no,300234066893240,GPS_Tracker,AWI,Polarstern,North
2022-08-17T18:00:00Z,2022,18,0,229.75,229.75,85.8732,-40.21,-999.0,1.5,-999.0,no,yes,no,300234066893240,GPS_Tracker,AWI,Polarstern,North
2022-08-17T19:00:02Z,2022,19,0,229.7917,229.7917,85.8736,-40.2184,-999.0,1.4,-999.0,no,yes,no,300234066893240,GPS_Tracker,AWI,Polarstern,North
2022-08-17T19:59:57Z,2022,20,0,229.8333,229.8333,85.8738,-40.2248,-999.0,1.3,-999.0,no,yes,no,300234066893240,GPS_Tracker,AWI,Polarstern,North
2022-08-17T21:00:00Z,2022,21,0,229.875,229.875,85.874,-40.2294,-999.0,1.0,-999.0,no,yes,no,300234066893240,GPS_Tracker,AWI,Polarstern,North
2022-08-17T22:00:02Z,2022,22,0,229.9167,229.9167,85.874,-40.2346,-999.0,0.6,-999.0,no,yes,no,300234066893240,GPS_Tracker,AWI,Polarstern,North
2022-08-17T22:59:57Z,2022,23,0,229.9583,229.9583,85.874,-40.2378,-999.0,0.3,-999.0,no,yes,no,300234066893240,GPS_Tracker,AWI,Polarstern,North
2022-08-18T00:00:00Z,2022,0,0,230.0,230.0,85.8738,-40.2394,-999.0,0.0,-999.0,no,yes,no,300234066893240,GPS_Tracker,AWI,Polarstern,North
2022-08-18T01:00:02Z,2022,1,0,230.0417,230.0417,85.8736,-40.2418,-999.0,-0.4,-999.0,no,yes,no,300234066893240,GPS_Tracker,AWI,Polarstern,North
2022-08-18T01:59:57Z,2022,2,0,230.0833,230.0833,85.8732,-40.2468,-999.0,-0.7,-999.0,no,yes,no,300234066893240,GPS_Tracker,AWI,Polarstern,North
2022-08-18T03:00:00Z,2022,3,0,230.125,230.125,85.8728,-40.2552,-999.0,-1.0,-999.0,no,yes,no,300234066893240,GPS_Tracker,AWI,Polarstern,North
2022-08-18T04:00:02Z,2022,4,0,230.1667,230.1667,85.8722,-40.2648,-999.0,-1.2,-999.0,no,yes,no,300234066893240,GPS_Tracker,AWI,Polarstern,North
2022-08-18T04:59:57Z,2022,5,0,230.2083,230.2083,85.8718,-40.2722,-999.0,-1.3,-999.0,no,yes,no,300234066893240,GPS_Tracker,AWI,Polarstern,North
2022-08-18T06:00:00Z,2022,6,0,230.25,230.25,85.8712,-40.279,-999.0,-1.3,-999.0,no,yes,no,300234066893240,GPS_Tracker,AWI,Polarstern,North
2022-08-18T07:00:02Z,2022,7,0,230.2917,230.2917,85.8702,-40.2896,-999.0,-1.3,-999.0,no,yes,no,300234066893240,GPS_Tracker,AWI,Polarstern,North
2022-08-18T07:59:57Z,2022,8,0,230.3333,230.3333,85.8692,-40.3058,-999.0,-1.2,-999.0,no,yes,no,300234066893240,GPS_Tracker,AWI,Polarstern,North
2022-08-18T09:00:00Z,2022,9,0,230.375,230.375,85.8682,-40.3236,-999.0,-1.1,-999.0,no,yes,no,300234066893240,GPS_Tracker,AWI,Polarstern,North
2022-08-18T10:00:02Z,2022,10,0,230.4167,230.4167,85.8674,-40.3392,-999.0,-0.9,-999.0,no,yes,no,300234066893240,GPS_Tracker,AWI,Polarstern,North
2022-08-18T10:59:57Z,2022,11,0,230.4583,230.4583,85.8664,-40.3514,-999.0,-0.5,-999.0,no,yes,no,300234066893240,GPS_Tracker,AWI,Polarstern,North
2022-08-18T12:00:00Z,2022,12,0,230.5,230.5,85.865,-40.3608,-999.0,-0.3,-999.0,no,yes,no,300234066893240,GPS_Tracker,AWI,Polarstern,North
2022-08-18T13:00:02Z,2022,13,0,230.5417,230.5417,85.8632,-40.3726,-999.0,0.0,-999.0,no,yes,no,300234066893240,GPS_Tracker,AWI,Polarstern,North
2022-08-18T13:59:57Z,2022,14,0,230.5833,230.5833,85.8614,-40.3862,-999.0,0.3,-999.0,no,yes,no,300234066893240,GPS_Tracker,AWI,Polarstern,North
2022-08-18T15:00:00Z,2022,15,0,230.625,230.625,85.8596,-40.4028,-999.0,0.5,-999.0,no,yes,no,300234066893240,GPS_Tracker,AWI,Polarstern,North
2022-08-18T16:00:02Z,2022,16,0,230.6667,230.6667,85.8582,-40.4222,-999.0,0.9,-999.0,no,yes,no,300234066893240,GPS_Tracker,AWI,Polarstern,North
2022-08-18T16:59:57Z,2022,17,0,230.7083,230.7083,85.8568,-40.44,-999.0,1.1,-999.0,no,yes,no,300234066893240,GPS_Tracker,AWI,Polarstern,North
2022-08-18T18:00:00Z,2022,18,0,230.75,230.75,85.8558,-40.455,-999.0,0.9,-999.0,no,yes,no,300234066893240,GPS_Tracker,AWI,Polarstern,North
2022-08-18T19:00:02Z,2022,19,0,230.7917,230.7917,85.8548,-40.4662,-999.0,0.8,-999.0,no,yes,no,300234066893240,GPS_Tracker,AWI,Polarstern,North
2022-08-18T19:59:57Z,2022,20,0,230.8333,230.8333,85.8538,-40.4734,-999.0,0.8,-999.0,no,yes,no,300234066893240,GPS_Tracker,AWI,Polarstern,North
2022-08-18T21:00:00Z,2022,21,0,230.875,230.875,85.8528,-40.4756,-999.0,0.7,-999.0,no,yes,no,300234066893240,GPS_Tracker,AWI,Polarstern,North
2022-08-18T22:00:02Z,2022,22,0,230.9167,230.9167,85.8514,-40.4736,-999.0,0.5,-999.0,no,yes,no,300234066893240,GPS_Tracker,AWI,Polarstern,North
2022-08-18T22:59:57Z,2022,23,0,230.9583,230.9583,85.8496,-40.4716,-999.0,0.1,-999.0,no,yes,no,300234066893240,GPS_Tracker,AWI,Polarstern,North
2022-08-19T00:00:00Z,2022,0,0,231.0,231.0,85.8478,-40.469,-999.0,-0.4,-999.0,no,yes,no,300234066893240,GPS_Tracker,AWI,Polarstern,North
2022-08-19T01:00:02Z,2022,1,0,231.0417,231.0417,85.8458,-40.4652,-999.0,-0.9,-999.0,no,yes,no,300234066893240,GPS_Tracker,AWI,Polarstern,North
2022-08-19T01:59:57Z,2022,2,0,231.0833,231.0833,85.8438,-40.467,-999.0,-1.3,-999.0,no,yes,no,300234066893240,GPS_Tracker,AWI,Polarstern,North
2022-08-19T03:00:00Z,2022,3,0,231.125,231.125,85.8418,-40.4746,-999.0,-1.7,-999.0,no,yes,no,300234066893240,GPS_Tracker,AWI,Polarstern,North
2022-08-19T04:00:02Z,2022,4,0,231.1667,231.1667,85.8402,-40.4826,-999.0,-2.0,-999.0,no,yes,no,300234066893240,GPS_Tracker,AWI,Polarstern,North
2022-08-19T04:59:57Z,2022,5,0,231.2083,231.2083,85.8384,-40.4878,-999.0,-2.3,-999.0,no,yes,no,300234066893240,GPS_Tracker,AWI,Polarstern,North
2022-08-19T06:00:00Z,2022,6,0,231.25,231.25,85.8364,-40.4898,-999.0,-2.5,-999.0,no,yes,no,300234066893240,GPS_Tracker,AWI,Polarstern,North
2022-08-19T07:00:02Z,2022,7,0,231.2917,231.2917,85.8344,-40.4882,-999.0,-2.7,-999.0,no,yes,no,300234066893240,GPS_Tracker,AWI,Polarstern,North
2022-08-19T07:59:57Z,2022,8,0,231.3333,231.3333,85.832,-40.4836,-999.0,-2.9,-999.0,no,yes,no,300234066893240,GPS_Tracker,AWI,Polarstern,North
2022-08-19T09:00:00Z,2022,9,0,231.375,231.375,85.8292,-40.4814,-999.0,-2.8,-999.0,no,yes,no,300234066893240,GPS_Tracker,AWI,Polarstern,North
2022-08-19T10:00:02Z,2022,10,0,231.4167,231.4167,85.8258,-40.4848,-999.0,-2.5,-999.0,no,yes,no,300234066893240,GPS_Tracker,AWI,Polarstern,North
2022-08-19T10:59:57Z,2022,11,0,231.4583,231.4583,85.8222,-40.491,-999.0,-2.4,-999.0,no,yes,no,300234066893240,GPS_Tracker,AWI,Polarstern,North
2022-08-19T12:00:00Z,2022,12,0,231.5,231.5,85.8186,-40.497,-999.0,-2.2,-999.0,no,yes,no,300234066893240,GPS_Tracker,AWI,Polarstern,North